User: anonymous
Location: Unspecified
(0.0000°N, 0.0000°E)
Time: 13:56:22
(UTC+00:00)
Language:

AUBIESAT-1 - Orbit

View from above orbital plane
View from above orbital plane
View from above satellite
View from above satellite

Ground track
Ground track

The orbit data is extracted from the following two-line orbital elements,

1 37854U 11061E   14112.49392229  .00009214  00000-0  61909-3 0  7661
2 37854 101.7208 117.2782 0216897 215.1349 299.2040 14.89980539134419
Epoch (UTC): 22 April 2014 11:51:14
Eccentricity: 0.0216897
inclination: 101.7208°
perigee height: 446 km
apogee height: 749 km
right ascension of ascending node: 117.2782°
argument of perigee: 215.1349°
revolutions per day: 14.89980539
mean anomaly at epoch: 299.2040°
orbit number at epoch: 13441

The dashed part of the orbit path shows where the satellite is in the earth's shadow,  

DLR